Overview Statistics Trail Chart Weather Telemetry Raw packets
 

This is the latest recevied weather packets stored in our database for station/object KI4NG. If no packets are shown the sender has not sent any weather packets the latest 10 day(s).

<< 58 59 60 61 62 63 64 >>
Time Temp. Humidity Pressure Rain* Wind** Luminosity Snow
1788222936 26.11° C 83% 1020.8 hPa 0 mm - 0 W/m² -
1788222635 26.11° C 82% 1021.1 hPa 0 mm - 0 W/m² -
1788222334 26.67° C 81% 1021.1 hPa 0 mm - 0 W/m² -
1788222030 26.67° C 81% 1021 hPa 0 mm - 0 W/m² -
1788221724 26.67° C 81% 1020.9 hPa 0 mm - 0 W/m² -
1788221419 26.67° C 80% 1021 hPa 0 mm - 2 W/m² -
1788221114 26.67° C 80% 1021.2 hPa 0 mm - 3 W/m² -
1788220810 27.22° C 78% 1021 hPa 0 mm - 6 W/m² -
1788220503 27.78° C 77% 1021.1 hPa 0 mm - 9 W/m² -
1788220199 27.78° C 77% 1021.2 hPa 0 mm - 13 W/m² -
1788219893 27.78° C 76% 1021.2 hPa 0 mm - 18 W/m² -
1788219588 27.78° C 75% 1021 hPa 0 mm - 22 W/m² -
1788219283 28.33° C 74% 1021.2 hPa 0 mm - 29 W/m² -
1788218979 28.33° C 73% 1021.1 hPa 0 mm - 32 W/m² -
1788218675 28.89° C 73% 1021.2 hPa 0 mm - 36 W/m² -
1788218370 28.89° C 71% 1021.3 hPa 0 mm - 43 W/m² -
1788218067 28.89° C 72% 1021.2 hPa 0 mm - 49 W/m² -
1788217762 28.89° C 71% 1021.3 hPa 0 mm - 56 W/m² -
1788217457 29.44° C 70% 1021.3 hPa 0 mm - 57 W/m² -
1788217151 29.44° C 68% 1021.3 hPa 0 mm - 59 W/m² -
1788216847 29.44° C 69% 1021.3 hPa 0 mm - 64 W/m² -
1788216542 30° C 67% 1021.3 hPa 0 mm - 68 W/m² -
1788216242 30.56° C 66% 1021.4 hPa 0 mm - 74 W/m² -
1788215936 30.56° C 64% 1021.4 hPa 0 mm - 125 W/m² -
1788215632 31.11° C 63% 1021.3 hPa 0 mm - 183 W/m² -

* Rain latest hour (hover to see other rain measurements)
** Current wind speed in m/s (hover to see current wind gust speed)